Home   Weather   Thalwil   Past weeks

Flag for Switzerland Past Weather in Thalwil, Zurich, Switzerland — Yesterday and Last 2 Weeks

Now
68 °F

Mild.


Feels Like: 68 °F
Forecast: 58 / 78 °F
Wind: 2 mph from South

Location: Zuerich-Fluntern

Current Time: Sep 1, 2016 at 1:35:16 AM

Latest Report: Sep 1, 2016 at 12:00 AM


Visibility: N/A

Pressure: 30.16 "Hg

Humidity: 76%

Dew Point: 60 °F

Location of ThalwilLocation

Past Weather in Thalwil — Graph

°F

Thalwil Temperature Yesterday

Maximum temperature yesterday: 79 °F (at 4:00 PM)
Minimum temperature yesterday: 58 °F (at 7:00 AM)
Average temperature yesterday: 68 °F

High & Low Weather Summary for the Past Weeks

 TemperatureHumidityPressure
High89 °F (Aug 26, 4:00 PM)97% (Aug 18, 6:00 PM)30.39 "Hg (Aug 18, 6:00 PM)
Low52 °F (Aug 22, 5:00 AM)36% (Aug 28, 5:00 PM)29.80 "Hg (Aug 17, 6:00 PM)
Average68 °F74%30.07 "Hg
* Reported Aug 17 12:00 AM — Sep 1 12:00 AM, Thalwil, Weather by CustomWeather, © 2016

Note: Actual official high and low records may vary slightly from our data, if they occured in-between our weather recording intervals... More about our weather records

Advertising

Thalwil Weather History for the Previous 24 Hours

Scroll right to see more
 ConditionsComfort  
Time TempWeatherWind HumidityBarometerVisibility
12:00 AM
Thu, Sep 1
68 °FMild.2 mph76%30.16 "HgN/A
10:00 PM
Wed, Aug 31
70 °FMild.2 mph72%30.12 "HgN/A
9:00 PM71 °FMild.No wind67%30.10 "HgN/A
8:00 PM71 °FScattered clouds.No wind71%30.08 "HgN/A
7:00 PM76 °FMild.3 mph56%30.05 "HgN/A
6:00 PM78 °FWarm.5 mph51%30.04 "HgN/A
5:00 PM79 °FWarm.6 mph48%30.05 "HgN/A
4:00 PM79 °FWarm.6 mph47%30.05 "HgN/A
2:00 PM77 °FPassing clouds.5 mph55%30.09 "HgN/A
1:00 PM75 °FMild.5 mph63%30.09 "HgN/A
12:00 PM72 °FMild.5 mph67%30.11 "HgN/A
11:00 AM68 °FMild.2 mph74%30.13 "HgN/A
10:00 AM65 °FMild.2 mph78%30.14 "HgN/A
9:00 AM62 °FMild.1 mph82%30.14 "HgN/A
8:00 AM59 °FPassing clouds.2 mph91%30.15 "HgN/A
7:00 AM58 °FCool.1 mph91%30.15 "HgN/A
6:00 AM58 °FCool.2 mph91%30.14 "HgN/A
5:00 AM59 °FCool.1 mph91%30.14 "HgN/A
4:00 AM60 °FCool.3 mph90%30.13 "HgN/A
3:00 AM62 °FCool.6 mph84%30.12 "HgN/A
2:00 AM63 °FMild.7 mph81%30.11 "HgN/A
1:00 AM64 °FMild.7 mph79%30.11 "HgN/A
Weather by CustomWeather, © 2016

See weather overviewHow to use our weather pages